WST603 MYAM-MYNN

Flight info

Callsign WST603
Flight time 0h 19m
Altitude 12000
Route MRRSH BR70V ZQA
Aircraft E145/M-SDFGIRW/S

Departure

Time 2026-05-05 13:12
Airport Leonard M. Thompson International Airport (MYAM)

Arrival

Time 2026-05-05 13:32
Airport Lynden Pindling International Airport (MYNN)
Time Latitude Longitude Altitude Speed Heading
2026-05-05 13:01 26.51291 -77.07809 15 ft 0 kts 90°
2026-05-05 13:07 26.51287 -77.07800 15 ft 3 kts 123°
2026-05-05 13:07 26.51257 -77.07790 15 ft 6 kts 186°
2026-05-05 13:07 26.51216 -77.07816 16 ft 7 kts 232°
2026-05-05 13:08 26.51187 -77.07867 17 ft 8 kts 239°
2026-05-05 13:08 26.51154 -77.07927 17 ft 9 kts 237°
2026-05-05 13:08 26.51117 -77.07993 18 ft 10 kts 239°
2026-05-05 13:08 26.51069 -77.08082 18 ft 15 kts 240°
2026-05-05 13:09 26.51025 -77.08202 18 ft 17 kts 259°
2026-05-05 13:09 26.51018 -77.08351 17 ft 20 kts 269°
2026-05-05 13:09 26.51014 -77.08521 16 ft 23 kts 268°
2026-05-05 13:09 26.51008 -77.08708 15 ft 25 kts 269°
2026-05-05 13:10 26.51003 -77.08920 12 ft 28 kts 268°
2026-05-05 13:10 26.50998 -77.09151 9 ft 31 kts 268°
2026-05-05 13:10 26.50991 -77.09364 9 ft 9 kts 271°
2026-05-05 13:10 26.50984 -77.09419 9 ft 3 kts 271°
2026-05-05 13:11 26.50990 -77.09415 9 ft 1 kts 65°
2026-05-05 13:11 26.50991 -77.09405 9 ft 2 kts 87°
2026-05-05 13:11 26.50994 -77.09268 8 ft 50 kts 88°
2026-05-05 13:11 26.51011 -77.08608 16 ft 114 kts 88°
2026-05-05 13:12 26.51042 -77.07583 203 ft 140 kts 91°
2026-05-05 13:12 26.51063 -77.06458 706 ft 150 kts 91°
2026-05-05 13:12 26.51072 -77.05286 1299 ft 157 kts 100°
2026-05-05 13:12 26.50526 -77.04096 1478 ft 194 kts 138°
2026-05-05 13:13 26.49196 -77.03518 1825 ft 224 kts 174°
2026-05-05 13:13 26.47559 -77.03468 2336 ft 244 kts 182°
2026-05-05 13:13 26.45836 -77.03783 3165 ft 249 kts 191°
2026-05-05 13:13 26.44173 -77.04215 4061 ft 249 kts 193°
2026-05-05 13:14 26.42494 -77.04686 4818 ft 254 kts 194°
2026-05-05 13:14 26.40752 -77.05187 5607 ft 258 kts 195°
2026-05-05 13:14 26.38989 -77.05696 6362 ft 262 kts 195°
2026-05-05 13:14 26.37237 -77.06202 7165 ft 262 kts 196°
2026-05-05 13:15 26.35469 -77.06712 7957 ft 263 kts 197°
2026-05-05 13:15 26.33693 -77.07225 8726 ft 264 kts 198°
2026-05-05 13:15 26.31893 -77.07744 9466 ft 266 kts 198°
2026-05-05 13:15 26.30087 -77.08266 10176 ft 268 kts 199°
2026-05-05 13:16 26.28246 -77.08798 10717 ft 277 kts 199°
2026-05-05 13:16 26.26327 -77.09351 11167 ft 289 kts 199°
2026-05-05 13:16 26.24320 -77.09929 11610 ft 299 kts 199°
2026-05-05 13:16 26.22267 -77.10521 11945 ft 313 kts 199°
2026-05-05 13:17 26.20078 -77.11152 11980 ft 335 kts 199°
2026-05-05 13:17 26.17717 -77.11831 11983 ft 356 kts 198°
2026-05-05 13:17 26.15258 -77.12538 11983 ft 370 kts 198°
2026-05-05 13:17 26.12717 -77.13268 11977 ft 372 kts 198°
2026-05-05 13:18 26.10157 -77.14004 11974 ft 372 kts 198°
2026-05-05 13:18 26.07655 -77.14722 11972 ft 371 kts 198°
2026-05-05 13:18 26.05134 -77.15447 11972 ft 371 kts 198°
2026-05-05 13:18 26.02590 -77.16177 11974 ft 371 kts 198°
2026-05-05 13:19 26.00066 -77.16901 11976 ft 371 kts 198°
2026-05-05 13:19 25.97551 -77.17621 11972 ft 370 kts 198°
2026-05-05 13:19 25.95028 -77.18345 11971 ft 369 kts 198°
2026-05-05 13:19 25.92534 -77.19059 11973 ft 369 kts 198°
2026-05-05 13:20 25.90055 -77.19770 11971 ft 368 kts 198°
2026-05-05 13:20 25.87547 -77.20488 11972 ft 367 kts 198°
2026-05-05 13:20 25.85050 -77.21203 11970 ft 367 kts 198°
2026-05-05 13:20 25.82578 -77.21910 11977 ft 367 kts 198°
2026-05-05 13:21 25.80089 -77.22622 11971 ft 366 kts 198°
2026-05-05 13:21 25.77595 -77.23334 11971 ft 366 kts 198°
2026-05-05 13:21 25.75125 -77.24055 11967 ft 364 kts 201°
2026-05-05 13:21 25.72771 -77.25088 11976 ft 362 kts 206°
2026-05-05 13:22 25.70421 -77.26170 11978 ft 362 kts 206°
2026-05-05 13:22 25.68075 -77.27260 11972 ft 362 kts 206°
2026-05-05 13:22 25.65760 -77.28339 11968 ft 362 kts 206°
2026-05-05 13:22 25.63426 -77.29428 11972 ft 361 kts 206°
2026-05-05 13:23 25.61096 -77.30514 11972 ft 361 kts 206°
2026-05-05 13:23 25.58749 -77.31609 11968 ft 361 kts 206°
2026-05-05 13:23 25.56407 -77.32701 11745 ft 359 kts 206°
2026-05-05 13:23 25.54106 -77.33773 11493 ft 355 kts 206°
2026-05-05 13:24 25.51834 -77.34831 11241 ft 350 kts 206°
2026-05-05 13:24 25.49585 -77.35879 10993 ft 347 kts 206°
2026-05-05 13:24 25.47342 -77.36923 10742 ft 344 kts 206°
2026-05-05 13:24 25.45129 -77.37952 10493 ft 341 kts 206°
2026-05-05 13:25 25.42926 -77.38977 10248 ft 339 kts 206°
2026-05-05 13:25 25.40742 -77.39992 10003 ft 336 kts 206°
2026-05-05 13:25 25.38559 -77.41007 9750 ft 334 kts 206°
2026-05-05 13:25 25.36427 -77.41997 9517 ft 332 kts 206°
2026-05-05 13:26 25.34294 -77.42988 9271 ft 330 kts 205°
2026-05-05 13:26 25.32214 -77.43951 9226 ft 306 kts 206°
2026-05-05 13:26 25.30304 -77.44837 8701 ft 285 kts 206°
2026-05-05 13:26 25.28530 -77.45660 8166 ft 267 kts 206°
2026-05-05 13:27 25.26863 -77.46433 7647 ft 253 kts 206°
2026-05-05 13:27 25.25275 -77.47169 7143 ft 243 kts 206°
2026-05-05 13:27 25.23727 -77.47887 6616 ft 236 kts 205°
2026-05-05 13:27 25.22215 -77.48589 6101 ft 231 kts 205°
2026-05-05 13:28 25.20740 -77.49272 5528 ft 229 kts 205°
2026-05-05 13:28 25.19278 -77.49950 4944 ft 229 kts 204°
2026-05-05 13:28 25.17799 -77.50635 4362 ft 228 kts 204°
2026-05-05 13:28 25.16343 -77.51309 3804 ft 226 kts 204°
2026-05-05 13:29 25.14894 -77.51978 3348 ft 225 kts 205°
2026-05-05 13:29 25.13448 -77.52648 2766 ft 228 kts 202°
2026-05-05 13:29 25.11934 -77.53281 2170 ft 232 kts 192°
2026-05-05 13:29 25.10337 -77.53124 1582 ft 233 kts 160°
2026-05-05 13:30 25.09120 -77.52045 1380 ft 217 kts 124°
2026-05-05 13:30 25.08312 -77.50806 1227 ft 181 kts 131°
2026-05-05 13:30 25.07494 -77.49983 1055 ft 146 kts 141°
2026-05-05 13:30 25.06716 -77.49236 550 ft 145 kts 137°
2026-05-05 13:31 25.06009 -77.48489 265 ft 132 kts 137°
2026-05-05 13:31 25.05368 -77.47774 78 ft 131 kts 136°
2026-05-05 13:31 25.04752 -77.47091 8 ft 115 kts 135°
2026-05-05 13:31 25.04281 -77.46566 7 ft 65 kts 134°
2026-05-05 13:32 25.04114 -77.46271 7 ft 30 kts 110°
2026-05-05 13:32 25.04166 -77.46190 7 ft 16 kts 329°
2026-05-05 13:32 25.04260 -77.46286 7 ft 19 kts 315°
2026-05-05 13:32 25.04362 -77.46400 7 ft 21 kts 314°
2026-05-05 13:33 25.04475 -77.46524 7 ft 23 kts 315°
2026-05-05 13:33 25.04596 -77.46659 7 ft 25 kts 314°
2026-05-05 13:33 25.04734 -77.46715 7 ft 17 kts 44°
2026-05-05 13:33 25.04805 -77.46633 7 ft 13 kts 51°
2026-05-05 13:34 25.04836 -77.46585 7 ft 0 kts 41°